Weather Roundup
Issued by NWS Chicago, IL

Home | Current Version | Previous Version | Text Only | Print | Product List | Glossary Off
Versions: 1 2 3 4 5 6 7 8 9 10 11 12 13 14 15 16 17 18 19 20 21 22 23 24 25 26 27 28 29 30 31 32 33 34 35 36 37 38 39 40 41 42 43 44 45 46 47 48 49 50

000
NZUS59 KLOT 190509
HRRLOT

CHICAGO AREA WEATHER ROUNDUP
NATIONAL WEATHER SERVICE CHICAGO/ROMEOVILLE IL
1200 AM CDT THU OCT 19 2017

NOTE: "FAIR" INDICATES FEW OR NO CLOUDS BELOW 12,000 FEET WITH NO
SIGNIFICANT WEATHER AND/OR OBSTRUCTIONS TO VISIBILITY.

* THESE STATIONS ARE NOT UNDER NWS QUALITY CONTROL. THEY ALSO MAY NOT
  REPORT WEATHER SUCH AS PRECIPITATION OR FOG.

ILZ005-006-012>014-019>023-190600-
NORTHEAST ILLINOIS

CITY           SKY/WX    TMP DP  RH WIND       PRES   REMARKS
OHARE          PTCLDY    61  44  53 SW14G20   30.03F
MIDWAY         CLEAR     59  46  62 SW10      30.05F
AURORA         CLEAR     55  45  68 S8        30.06F
LANSING*       CLEAR     55  47  77 SW8       30.08F
JOLIET*        CLEAR     55  46  71 S5        30.07F
WAUKEGAN       CLEAR     60  44  55 SW12      30.00F
DUPAGE AIRPORT CLEAR     55  46  71 SW10      30.04F
WHEELING       CLEAR     62  45  53 SW8G18    30.04F
KANKAKEE*      CLEAR     54  45  72 SW5       30.10F
MORRIS*        CLEAR     54  46  74 S6        30.06F
NORTHERLY ISL    N/A     61  43  51 S9          N/A
$$

WIZ051-052-058>065-066-070>072-190600-
SOUTHEAST WISCONSIN

CITY           SKY/WX    TMP DP  RH WIND       PRES   REMARKS
MILWAUKEE      PTCLDY    60  44  55 SW14      29.97F
KENOSHA*       CLEAR     61  43  51 SW13      30.00F
RACINE*        CLEAR     60  44  55 SW9       30.00F
BURLINGTON     CLEAR     55  46  70 SW10      29.99F
WAUKESHA       CLEAR     57  41  54 SW12      29.98F
WEST BEND      PTCLDY    59  41  51 SW14G21   29.94S
$$

INZ001>003-010>013-019-020-190600-
NORTHWEST INDIANA

CITY           SKY/WX    TMP DP  RH WIND       PRES   REMARKS
GARY*          CLEAR     59  44  56 S7        30.07F
MICHIGAN CITY* NOT AVBL
RENSSELAER*    NOT AVBL
VALPARAISO     CLEAR     56  46  69 S8        30.10S
$$

LMZ740>746-190600-
SOUTHERN LAKE MICHIGAN

STATION/POSITION TIME  SKY/WX   TEMP WIND        PRES    VSBY
                                AIR  DIR/SP/G
                 (UTC)          (F)  (DEG/KT/KT) (MB)    (MI)
HARRISON CRIB    0440            64  220/ 24/ 29   N/A
BURNHAM HARBOR   0500            61  210/  8/ 10   N/A
CALUMET HARBOR   0448            60  200/ 10/ 16 1017.0F
BURNS HARBOR     0440            59  190/ 14/ 17 1018.6S
MICHIGAN CITY    0440            60  180/ 14/ 16   N/A
$$

ABBREVIATIONS USED IN REMARKS
   TC - TEMPERATURE IN CELSIUS
  WCI - WIND CHILL INDEX
   HX - HEAT INDEX
  VSB - VISIBILITY
$$




USA.gov is the U.S. government's official web portal to all federal, state and local government web resources and services.